Flag for United Kingdom Weather past 2 weeks in Huddersfield, England, United Kingdom

Now
50 °F

Passing clouds.


Feels Like: 49 °F
Forecast: 38 / 65 °F
Wind: 3 mph from North

Location: Leeds And Bradford

Current Time: Sep 21, 2014 at 8:11:24 PM

Latest Report: Sep 21, 2014 at 7:20 PM


Visibility: N/A

Pressure: 30.33 "Hg

Humidity: 88%

Dew point: 46 °F

Location of HuddersfieldLocation

Historic Weather in Huddersfield — Graph

°F

Huddersfield temperature yesterday

Maximum temperature yesterday: 57 °F (at 12:20 AM)
Minimum temperature yesterday: 50 °F (at 11:20 PM)
Average temperature yesterday: 55 °F

Past Weeks' High & Low Weather Summary

 TemperatureHumidityPressure
High66 °F (Sep 18, 4:50 PM)100% (Sep 6, 6:20 PM)30.39 "Hg (Sep 6, 6:20 PM)
Low45 °F (Sep 7, 6:20 AM)49% (Sep 7, 2:50 PM)29.89 "Hg (Sep 18, 3:50 AM)
Average55 °F89%30.12 "Hg
* Reported Sep 6 6:20 PM — Sep 21 6:50 PM, Huddersfield, Weather by CustomWeather, © 2014

Note: Actual official high and low records may vary slightly from our data, if they occured in-between our weather recording intervals... More about our weather records

Advertising

Huddersfield weather history for previous 24 hours

 ConditionsComfort  
Time TempWeatherWind HumidityBarometerVisibility
6:50 PM
Sep 21
52 °FPassing clouds.5 mph82%30.33 "HgN/A
6:20 PM54 °FPassing clouds.3 mph77%30.33 "HgN/A
5:50 PM54 °FScattered clouds.6 mph77%30.30 "HgN/A
5:20 PM54 °FScattered clouds.6 mph72%30.30 "HgN/A
4:50 PM55 °FScattered clouds.5 mph67%30.33 "HgN/A
4:20 PM55 °FScattered clouds.7 mph67%30.33 "HgN/A
3:20 PM57 °FScattered clouds.9 mph59%30.33 "HgN/A
2:50 PM55 °FScattered clouds.8 mph63%30.33 "HgN/A
2:20 PM55 °FScattered clouds.8 mph63%30.30 "HgN/A
1:50 PM57 °FScattered clouds.9 mph63%30.30 "HgN/A
1:20 PM57 °FScattered clouds.9 mph72%30.30 "HgN/A
12:50 PM55 °FScattered clouds.9 mph77%30.30 "HgN/A
12:20 PM55 °FScattered clouds.10 mph72%30.30 "HgN/A
11:50 AM55 °FScattered clouds.10 mph72%30.30 "HgN/A
11:20 AM55 °FScattered clouds.13 mph77%30.30 "HgN/A
10:20 AM54 °FPassing clouds.8 mph82%30.30 "HgN/A
9:50 AM54 °FPassing clouds.9 mph82%30.30 "HgN/A
9:20 AM54 °FPassing clouds.8 mph82%30.27 "HgN/A
8:50 AM52 °FPassing clouds.6 mph88%30.27 "HgN/A
8:20 AM50 °FPassing clouds.6 mph88%30.27 "HgN/A
7:50 AM48 °FSunny.7 mph94%30.27 "Hg10 mi
7:20 AM50 °FClear.8 mph88%30.24 "Hg10 mi
6:50 AM48 °FClear.7 mph94%30.24 "Hg10 mi
6:20 AM50 °FPassing clouds.8 mph88%30.24 "HgN/A
5:50 AM48 °FPassing clouds.7 mph94%30.24 "HgN/A
5:20 AM48 °FClear.7 mph94%30.24 "Hg10 mi
4:50 AM50 °FClear.8 mph94%30.21 "Hg10 mi
4:20 AM50 °FClear.8 mph94%30.21 "Hg10 mi
3:50 AM50 °FClear.6 mph94%30.21 "Hg10 mi
3:20 AM50 °FClear.5 mph94%30.21 "Hg10 mi
2:50 AM50 °FClear.3 mph94%30.21 "Hg10 mi
2:20 AM50 °FClear.1 mph94%30.21 "Hg10 mi
1:50 AM48 °FPassing clouds.No wind100%30.21 "HgN/A
1:20 AM46 °FPassing clouds.3 mph100%30.21 "HgN/A
12:50 AM48 °FPassing clouds.2 mph94%30.21 "HgN/A
12:20 AM50 °FPassing clouds.3 mph94%30.21 "HgN/A
11:20 PM
Sep 20
50 °FPassing clouds.7 mph94%30.21 "HgN/A
10:50 PM52 °FPassing clouds.7 mph94%30.18 "HgN/A
10:20 PM52 °FPassing clouds.7 mph94%30.18 "HgN/A
9:20 PM54 °FPassing clouds.7 mph88%30.18 "HgN/A
8:50 PM54 °FPassing clouds.8 mph88%30.15 "HgN/A
8:20 PM54 °FPassing clouds.7 mph94%30.15 "HgN/A
Weather by CustomWeather, © 2014

See weather overviewHow to use our weather pages